P/2015 X6 ( PanSTARRS )

Japanese version
Home page
Updated on November 13, 2016

---------------------------------------------------------------------

* Profile

Discovery Date December 7, 2015
Magnitude 21.4 mag
Discoverer Pan-STARRS 1 telescope (Haleakala)

* Orbital Elements

Epoch 2016 Apr. 2.0 TT = JDT 2457480.5
T 2016 Mar. 18.66499 TT                                 MPCW
q   2.2873194            (2000.0)            P               Q
n   0.21562592     Peri.  329.02741     +0.23798068     -0.96829575
a   2.7542418      Node   107.11342     +0.90660035     +0.19339849
e   0.1695285      Incl.    4.55807     +0.34848385     +0.15811505
P   4.57
From 41 observations 2015 Nov. 12-2016 Feb. 1, mean residual 0".4.

* Magnitudes Graph

        m1 = 16.0 + 5 log d + 10.0 log r

---------------------------------------------------------------------

The orbital elements are published on M.P.E.C. 2016-Q04.
The magnitudes graphs are made with Comet for Windows.

---------------------------------------------------------------------

Copyright(C) Seiichi Yoshida (comet@aerith.net). All rights reserved.